TimePST,TemperatureF,Dew PointF,Humidity,Sea Level PressureIn,VisibilityMPH,Wind Direction,Wind SpeedMPH,Gust SpeedMPH,PrecipitationIn,Events,Conditions,WindDirDegrees,DateUTC
12:53 AM,25.0,21.9,88,30.43,10.0,North,5.8,-,N/A,,Overcast,10,2013-01-22 08:53:00
1:53 AM,25.0,21.9,88,30.42,10.0,North,3.5,-,N/A,,Overcast,360,2013-01-22 09:53:00
2:53 AM,25.0,21.0,85,30.43,10.0,NNW,5.8,-,N/A,,Overcast,340,2013-01-22 10:53:00
3:53 AM,25.0,21.0,85,30.40,10.0,NNW,6.9,-,N/A,,Overcast,330,2013-01-22 11:53:00
4:53 AM,25.0,21.0,85,30.40,10.0,NW,6.9,-,N/A,,Overcast,310,2013-01-22 12:53:00
5:53 AM,25.0,21.0,85,30.39,10.0,NW,5.8,-,N/A,,Overcast,320,2013-01-22 13:53:00
6:53 AM,25.0,21.0,85,30.40,8.0,NNW,8.1,-,N/A,,Overcast,330,2013-01-22 14:53:00
7:53 AM,25.0,19.9,81,30.40,10.0,North,5.8,-,N/A,,Overcast,360,2013-01-22 15:53:00
8:53 AM,25.0,19.9,81,30.41,10.0,NW,5.8,-,N/A,,Overcast,320,2013-01-22 16:53:00
9:53 AM,25.0,19.9,81,30.39,10.0,NW,6.9,-,N/A,,Overcast,320,2013-01-22 17:53:00
10:53 AM,26.1,19.9,78,30.40,7.0,WNW,8.1,-,N/A,,Overcast,300,2013-01-22 18:53:00
11:53 AM,26.1,19.9,78,30.39,10.0,NNW,6.9,-,N/A,,Overcast,330,2013-01-22 19:53:00
12:53 PM,27.0,19.0,72,30.38,10.0,Calm,Calm,-,N/A,,Overcast,0,2013-01-22 20:53:00
1:53 PM,27.0,19.0,72,30.35,10.0,North,6.9,-,N/A,,Overcast,10,2013-01-22 21:53:00
2:53 PM,27.0,19.0,72,30.35,10.0,NW,6.9,-,N/A,,Overcast,320,2013-01-22 22:53:00
3:53 PM,26.1,19.0,75,30.34,10.0,WNW,3.5,-,N/A,,Overcast,290,2013-01-22 23:53:00
4:53 PM,26.1,19.9,78,30.32,10.0,WNW,5.8,-,N/A,,Overcast,300,2013-01-23 00:53:00
5:53 PM,26.1,19.9,78,30.32,10.0,NW,4.6,-,N/A,,Overcast,310,2013-01-23 01:53:00
6:53 PM,26.1,21.0,81,30.31,10.0,NW,3.5,-,N/A,,Overcast,320,2013-01-23 02:53:00
7:53 PM,26.1,21.0,81,30.30,10.0,Calm,Calm,-,N/A,,Overcast,0,2013-01-23 03:53:00
8:53 PM,26.1,21.0,81,30.30,10.0,NNW,3.5,-,N/A,,Overcast,330,2013-01-23 04:53:00
9:53 PM,26.1,21.9,84,30.29,10.0,NNW,8.1,-,N/A,,Overcast,340,2013-01-23 05:53:00
10:53 PM,26.1,21.0,81,30.29,10.0,NW,3.5,-,N/A,,Overcast,310,2013-01-23 06:53:00
11:06 PM,26.6,21.2,80,30.27,10.0,NNW,4.6,-,N/A,,Overcast,330,2013-01-23 07:06:00
11:21 PM,26.6,21.2,80,30.28,10.0,WNW,4.6,-,N/A,,Overcast,300,2013-01-23 07:21:00
11:53 PM,26.1,21.0,81,30.27,10.0,NNW,3.5,-,N/A,,Overcast,340,2013-01-23 07:53:00